Location: St. Louis
(38.6270°N, 90.1994°W)
Time: 01:52:37
(UTC-06:00)

Vanguard 2 - Pass Details

Date: 04 December 2021
Orbit: 553 x 2936 km, 32.9° (Epoch: 16 January)

Event Time Altitude Azimuth Distance (km) Brightness Sun altitude
Rises 11:57:09 0° 218° (SW) 2,711 11.1 29.0°
Reaches altitude 10° 11:59:43 10° 199° (SSW) 1,877 11.0 29.0°
Maximum altitude 12:02:43 19° 152° (SSE) 1,512 10.3 29.0°
Drops below altitude 10° 12:06:16 10° 106° (ESE) 2,287 10.2 28.9°
Sets 12:09:51 0° 90° (E) 3,557 10.9 28.9°
